Tracking 17694 objects as of 29-May-2016
HD Live streaming from Space Station
objects crossing your sky now

GALAXY 14

Track GALAXY 14 now!
GALAXY 14 is classified as:


NORAD ID: 28790
Int'l Code: 2005-030A
Perigee: 35,783.6 km
Apogee: 35,804.9 km
Inclination: 0.0 °
Period: 1,436.1 minutes
Semi major axis: 42165 km
RCS: 19.9526 m2 (large)
Launch date: August 13, 2005
Source: United States (US)
Launch site: TYURATAM MISSILE AND SPACE COMPLEX (TTMTR)

24 C-band transponders; North America, Caribbean.
Your satellite tracking list
Your tracking list is empty





NASA's NSSDC Master Catalog

Two Line Element Set (TLE):
1 28790U 05030A   16149.37296497  .00000033  00000-0  00000+0 0  9997
2 28790   0.0361  61.0271 0002531   6.3399 188.2455  1.00270662 39487
Source of the keplerian elements: AFSPC

N2YO: 479